Voltar ao catálogo

ATLAS 5 CENTAUR DEB

AtivoHEO
NORAD 43996·DEBRIS·🇺🇸 United States

Lançado Sep 17, 2014 de Cape Canaveral Space Force Station

Loading…

Próximas Passagens (próximas 24 horas)

TLE

AtualizadoSource: Space-Track

Época: Sep 13, 2026, 10:18 UTC

1 43996U 14055BB  26256.42928700 -.00000077  00000-0  00000+0 0  9993
2 43996  19.8532 148.9139 4806198 155.8226 237.3216  1.81740449 52639

Acompanhe ATLAS 5 CENTAUR DEB em tempo real com AllMySat

Download on the App Store